TimeMDT,TemperatureF,Dew PointF,Humidity,Sea Level PressureIn,VisibilityMPH,Wind Direction,Wind SpeedMPH,Gust SpeedMPH,PrecipitationIn,Events,Conditions,WindDirDegrees,DateUTC
12:53 AM,68.0,46.9,47,29.75,10.0,SSE,3.5,-,N/A,,Clear,150,2013-08-24 06:53:00
1:53 AM,66.9,45.0,45,29.75,10.0,ESE,8.1,-,N/A,,Clear,120,2013-08-24 07:53:00
2:53 AM,66.0,45.0,47,29.75,10.0,SE,3.5,-,N/A,,Clear,140,2013-08-24 08:53:00
3:53 AM,66.0,43.0,43,29.75,10.0,ESE,6.9,-,N/A,,Clear,120,2013-08-24 09:53:00
4:53 AM,66.0,41.0,40,29.75,10.0,SE,10.4,-,N/A,,Clear,140,2013-08-24 10:53:00
5:53 AM,64.9,42.1,43,29.75,10.0,ESE,5.8,-,N/A,,Clear,120,2013-08-24 11:53:00
6:53 AM,62.1,42.1,48,29.77,10.0,SSE,4.6,-,N/A,,Clear,160,2013-08-24 12:53:00
7:53 AM,62.1,45.0,53,29.78,10.0,ENE,4.6,-,N/A,,Clear,60,2013-08-24 13:53:00
8:53 AM,64.9,46.0,50,29.79,10.0,Calm,Calm,-,N/A,,Clear,0,2013-08-24 14:53:00
9:53 AM,73.0,42.1,33,29.78,9.0,SE,8.1,-,N/A,,Clear,130,2013-08-24 15:53:00
10:53 AM,75.0,43.0,32,29.79,7.0,SE,9.2,-,N/A,,Clear,140,2013-08-24 16:53:00
11:53 AM,78.1,46.0,32,29.78,9.0,Variable,5.8,-,N/A,,Clear,0,2013-08-24 17:53:00
12:53 PM,86.0,51.1,30,29.75,10.0,SSE,13.8,21.9,N/A,,Clear,160,2013-08-24 18:53:00
1:53 PM,90.0,46.9,23,29.71,10.0,South,16.1,-,N/A,,Clear,170,2013-08-24 19:53:00
2:53 PM,91.9,41.0,17,29.69,7.0,SSW,8.1,-,N/A,,Clear,200,2013-08-24 20:53:00
3:53 PM,93.0,39.0,15,29.65,6.0,South,3.5,-,N/A,,Haze,170,2013-08-24 21:53:00
4:53 PM,88.0,50.0,27,29.65,7.0,WNW,10.4,-,N/A,,Scattered Clouds,290,2013-08-24 22:53:00
5:40 PM,87.8,37.4,17,29.75,8.0,Variable,3.5,28.8,0.00,Rain,Light Rain,0,2013-08-24 23:40:00
5:53 PM,89.1,39.0,17,29.63,10.0,NE,5.8,-,0.00,,Scattered Clouds,50,2013-08-24 23:53:00
6:53 PM,89.1,37.9,16,29.65,9.0,West,6.9,-,N/A,,Clear,280,2013-08-25 00:53:00
7:53 PM,86.0,51.1,30,29.67,8.0,West,4.6,-,N/A,,Clear,280,2013-08-25 01:53:00
8:53 PM,81.0,53.1,38,29.67,9.0,NE,4.6,-,N/A,,Clear,50,2013-08-25 02:53:00
9:53 PM,79.0,48.0,34,29.68,10.0,SE,8.1,-,N/A,,Partly Cloudy,130,2013-08-25 03:53:00
10:53 PM,80.1,45.0,29,29.70,9.0,SE,9.2,-,N/A,,Clear,130,2013-08-25 04:53:00
11:53 PM,77.0,46.9,34,29.70,10.0,SE,9.2,-,N/A,,Clear,140,2013-08-25 05:53:00